Weather WX

World > North America > United States > New Jersey

Elwood, New Jersey Regional Weather

Lat: 39.58N, Lon: 74.72W
Wx Zone: NJZ022
Warning FLW WEATHER ALERT - (More Info. Click Here) Warning
Feedback

Elwood, NJ Regional Weather

Expires:201906251100;;048195
ASUS41 KOKX 251013
RWROKX

Regional Weather Roundup
National Weather Service New York NY
600 AM EDT TUE JUN 25 2019

Note: "FAIR" indicates few or no clouds below 12,000 feet with no
significant weather and/or obstructions to visibility.


NJZ001-105-106-008-010-013-015-019>022-104-251100-
New Jersey
  
CITY           SKY/WX    TMP DP  RH WIND       PRES   REMARKS
Newark/Liberty TSTM      73  69  87 N6        29.81F                  
Teterboro      CLOUDY    75  68  78 SE3       29.81R                  
Caldwell       RAIN      72  70  93 N6        29.82F FOG              
Somerville     HVY RAIN  71  70  96 CALM      29.79R VSB 3/4          
Linden         NOT AVBL                                               
Perth Amboy      N/A     72 N/A N/A E8          N/A                   
Sussex         RAIN      67  67 100 CALM      29.81  FOG              
Andover          N/A     69  68  96 CALM      29.81F                  
Trenton        CLOUDY    72  70  93 S5        29.79S                  
Millville      FAIR      73  72  96 VRB3      29.78F                  
Atlantic City  CLOUDY    73  72  94 S8        29.81                   
Wrightstown    MOCLDY    71  71 100 E3        29.78                   
Toms River     CLOUDY   N/A N/A N/A S6        29.82S                  
Belmar         CLOUDY    72  71  97 SE8       29.81F                  
$$
 

SKY/WX - Weather  TMP - Temperature  DP - Dew Point  RH - Relative Humidity
WIND - Wind Direction/Speed PRES - Barometric Pressure VSB - Visibility
WCI - Wind Chill Index E13G22 Wind - East Wind 13 mph/Gusts of 22 mph